Location: Bacharowice
(49.9333°N, 19.5833°E)
Time: 09:20:34
(UTC+00:00)

Cosmos 1812 - Pass Details

Date: 11 May 2021
Orbit: 514 x 521 km, 82.5° (Epoch: 21 June)

Event Time Altitude Azimuth Distance (km) Brightness Sun altitude
Exits shadow 19:11:59 10° 145° (SE) 1,754 4.8 -8.2°
Maximum altitude 19:15:10 25° 89° (E) 1,078 3.9 -8.6°
Drops below altitude 10° 19:18:23 10° 33° (NNE) 1,770 5.5 -9.0°
Sets 19:20:47 0° 21° (NNE) 2,664 6.6 -9.3°
